Regional Weather Roundup
Issued by NWS

Home | Current Version | Previous Version | Text Only | Print | Product List | Glossary Off
Versions: 1 2 3 4 5 6 7 8 9 10 11 12 13 14 15 16 17 18 19 20 21 22 23 24 25 26 27 28 29 30 31 32 33 34 35 36 37 38 39 40 41 42 43 44 45 46 47 48 49 50

000
ASUS43 KLOT 201410
RWRIL

ILLINOIS REGIONAL WEATHER ROUNDUP
NATIONAL WEATHER SERVICE CHICAGO/ROMEOVILLE IL
800 AM CST SAT DEC 20 2014

NOTE: "FAIR" INDICATES FEW OR NO CLOUDS BELOW 12,000 FEET WITH NO
SIGNIFICANT WEATHER AND/OR OBSTRUCTIONS TO VISIBILITY.

* THESE STATIONS ARE NOT UNDER NWS QUALITY CONTROL. THEY ALSO MAY NOT
  REPORT WEATHER SUCH AS PRECIPITATION OR FOG.

ILZ001-002-007-009-015-016-024-201500-
NORTHWEST ILLINOIS

CITY           SKY/WX    TMP DP  RH WIND       PRES   REMARKS
MOLINE         CLOUDY    30  25  81 E5        30.24F HAZE    WCI  25
STERLING*      CLOUDY    28  25  86 SE5       30.26F WCI  23
SAVANNA*       CLOUDY    29  26  88 CALM      30.26S FOG
$$

ILZ003-004-008-010-011-017-018-201500-
NORTH CENTRAL ILLINOIS

CITY           SKY/WX    TMP DP  RH WIND       PRES   REMARKS
ROCKFORD       CLOUDY    27  22  81 E3        30.28F
FREEPORT*      CLOUDY    26  24  91 SE5       30.27F FOG     WCI  21
ROCHELLE*      CLOUDY    27  25  94 CALM      30.27S FOG
DE KALB*       CLOUDY    26  23  91 CALM      30.26F FOG
PERU*          CLOUDY    29  27  90 CALM      30.28F FOG
$$

ILZ005-006-012>014-019>023-201500-
NORTHEAST ILLINOIS

CITY           SKY/WX    TMP DP  RH WIND       PRES   REMARKS
CHICAGO-OHARE  CLOUDY    30  24  78 CALM      30.27S
CHICAGO-MIDWAY CLOUDY    32  26  78 S5        30.28S WCI  27
AURORA         CLOUDY    27  22  81 SW3       30.28R HAZE
LANSING*       CLOUDY    29  27  91 CALM      30.29R FOG
JOLIET*        CLOUDY    28  24  86 CALM      30.29S
WAUKEGAN       CLOUDY    27  21  78 CALM      30.27S
DUPAGE AIRPORT CLOUDY    28  23  81 CALM      30.27R
KANKAKEE*      CLOUDY    29  27  91 CALM      30.30R FOG
WHEELING       CLOUDY    29  23  78 CALM      30.29S
MORRIS*        CLOUDY    28  27  96 CALM      30.28S FOG
ROMEOVILLE*    CLOUDY    28  25  86 SW3       30.28S
NORTHERLY ISL    N/A     31  25  78 S6          N/A  WCI  25
$$

LMZ740>746-201500-
SOUTHERN LAKE MICHIGAN

STATION/POSITION SKY/WX   TEMP    WIND        PRES    VSBY  WAVE
                          AIR SEA DIR/SP/G                  HT/PER
                          (F)     (DEG/KT/KT) (MB)    (MI)  (FT/S)
WAUKEGAN HARBOR            28        CALM       N/A
HARRISON CRIB              31     190/  7/  8   N/A
BURNHAM HARBOR             31     180/  3/  6   N/A
CALUMET HARBOR             31     210/  3/  5 1024.2S
$$

ILZ025>027-034>036-040-047-049-050-058-095>099-201500-
WEST-CENTRAL ILLINOIS

CITY           SKY/WX    TMP DP  RH WIND       PRES   REMARKS
QUINCY         CLOUDY    32  28  85 S6        30.23S FOG     WCI  26
GALESBURG*     CLOUDY    29  26  89 E5        30.24S FOG     WCI  24
MACOMB*        CLOUDY    30  28  92 SE6       30.26S FOG     WCI  24
JACKSONVILLE*  CLOUDY    34  29  83 SE5       30.25S WCI  30
PITTSFIELD*    CLOUDY    32  30  90 SE5       30.26R FOG     WCI  28
$$

ILZ028>032-037-038-041>044-048-051>054-059>061-201500-
CENTRAL ILLINOIS

CITY           SKY/WX    TMP DP  RH WIND       PRES   REMARKS
PONTIAC        CLOUDY    28  27  95 CALM      30.29F FOG
BLOOMINGTON    MOCLDY    25  24  96 CALM      30.27S FOG
DECATUR        CLOUDY    31  27  85 SE6       30.28S WCI  25
PEORIA         CLOUDY    30  24  78 E5        30.26F HAZE    WCI  25
LACON*         CLOUDY    28  24  87 E6        30.26F FOG     WCI  21
LINCOLN*       CLOUDY    32  29  91 E6        30.28S FOG     WCI  26
SPRINGFIELD    CLOUDY    32  27  81 SE5       30.27S WCI  27
TAYLORVILLE    CLOUDY    32  28  86 SE3       30.27S FOG
$$

ILZ033-039-045-046-055>057-062-063-201500-
EAST-CENTRAL ILLINOIS

CITY           SKY/WX    TMP DP  RH WIND       PRES   REMARKS
CHAMPAIGN      CLOUDY    28  26  92 E5        30.29R FOG     WCI  23
DANVILLE*      CLOUDY    29  28  94 CALM      30.26S FOG
RANTOUL*       MOCLDY    28  27  96 CALM      30.28S FOG
MATTOON        CLOUDY    30  25  81 S3        30.27S
PARIS*         CLOUDY    30  29  93 CALM      30.30S
$$

ILZ079-100>102-201500-
SOUTHWEST ILLINOIS

CITY           SKY/WX    TMP DP  RH WIND       PRES   REMARKS
ALTON          CLOUDY    34  28  80 SE6       30.28R WCI  29
BELLEVILLE     CLOUDY    34  31  90 SE2       30.28S
CAHOKIA*       CLOUDY    35  30  82 SE5       30.28R WCI  31
SPARTA*        CLOUDY    33  29  86 SE3       30.30R
$$

ILZ064>066-069>071-074>076-080>082-084>086-088>090-092>094-201500-
SOUTH-CENTRAL ILLINOIS

CITY           SKY/WX    TMP DP  RH WIND       PRES   REMARKS
CARBONDALE     CLOUDY    33  29  85 E3        30.29S
CAIRO*         CLOUDY    37  32  82 CALM      30.30R
EFFINGHAM*     CLOUDY    32  26  78 E5        30.30S WCI  27
MARION         CLOUDY    34  30  86 SE6       30.30R WCI  29
MT. VERNON     CLOUDY    32  27  80 SE3       30.30R
CENTRALIA*     CLOUDY    32  28  83 CALM      30.29R
SALEM*         CLOUDY    34  29  83 CALM      30.30R HAZE
METROPOLIS*    CLOUDY    35  29  81 CALM      30.29R
$$

ILZ067-068-072-073-078-083-087-091-201500-
SOUTHEAST ILLINOIS

CITY           SKY/WX    TMP DP  RH WIND       PRES   REMARKS
LAWRENCEVILLE  CLOUDY    31  28  89 E3        30.30F FOG
FLORA*         CLEAR     31  28  87 SE3       30.30R
FAIRFIELD*     CLOUDY    32  28  86 CALM      30.29R
HARRISBURG*    CLOUDY    33  29  86 CALM      30.31R
ROBINSON*      CLOUDY    31  29  94 E6        30.30F WCI  25
CARMI*         CLOUDY    34  31  88 E5        30.30R WCI  30
$$

ABBREVIATIONS USED IN REMARKS
   TC - TEMPERATURE IN CELSIUS
  WCI - WIND CHILL INDEX
   HX - HEAT INDEX
  VSB - VISIBILITY
$$



USA.gov is the U.S. government's official web portal to all federal, state and local government web resources and services.